TimeEDT,TemperatureF,Dew PointF,Humidity,Sea Level PressureIn,VisibilityMPH,Wind Direction,Wind SpeedMPH,Gust SpeedMPH,PrecipitationIn,Events,Conditions,WindDirDegrees,DateUTC
12:52 AM,46.0,30.9,56,30.14,10.0,NNE,4.6,-,N/A,,Overcast,30,2013-04-12 04:52:00
1:52 AM,45.0,34.0,65,30.13,10.0,NE,6.9,-,N/A,,Overcast,40,2013-04-12 05:52:00
2:52 AM,44.1,35.1,71,30.13,10.0,Variable,3.5,-,N/A,,Overcast,0,2013-04-12 06:52:00
3:52 AM,44.1,34.0,68,30.13,10.0,NE,6.9,-,N/A,,Overcast,40,2013-04-12 07:52:00
4:52 AM,43.0,32.0,65,30.13,10.0,ENE,9.2,-,N/A,,Overcast,70,2013-04-12 08:52:00
5:52 AM,43.0,27.0,53,30.12,10.0,Variable,5.8,-,N/A,,Overcast,0,2013-04-12 09:52:00
6:52 AM,43.0,30.9,62,30.13,10.0,East,13.8,20.7,N/A,,Overcast,80,2013-04-12 10:52:00
7:52 AM,44.1,30.9,60,30.13,10.0,East,12.7,19.6,N/A,,Overcast,80,2013-04-12 11:52:00
8:52 AM,44.1,30.0,58,30.12,10.0,ENE,10.4,20.7,0.00,,Overcast,70,2013-04-12 12:52:00
9:52 AM,44.1,30.0,58,30.09,10.0,East,12.7,21.9,N/A,,Overcast,80,2013-04-12 13:52:00
10:52 AM,44.1,28.0,53,30.06,10.0,East,15.0,24.2,N/A,,Overcast,80,2013-04-12 14:52:00
11:52 AM,42.1,30.0,62,30.02,8.0,East,11.5,23.0,0.00,Rain,Light Rain,100,2013-04-12 15:52:00
12:14 PM,41.0,33.1,73,30.03,1.8,East,8.1,-,0.04,Rain,Heavy Rain,90,2013-04-12 16:14:00
12:22 PM,41.0,34.0,76,30.03,3.0,East,5.8,-,0.04,Rain,Light Rain,100,2013-04-12 16:22:00
12:52 PM,39.9,35.1,83,30.01,3.0,East,9.2,-,0.10,Rain,Rain,80,2013-04-12 16:52:00
1:00 PM,39.9,35.1,83,30.01,2.0,East,5.8,-,0.03,Rain,Heavy Rain,90,2013-04-12 17:00:00
1:14 PM,39.9,35.1,83,30.00,4.0,East,5.8,-,0.06,Rain,Light Rain,90,2013-04-12 17:14:00
1:48 PM,39.2,35.6,87,30.00,5.0,Variable,3.5,-,0.09,Rain,Light Rain,0,2013-04-12 17:48:00
1:52 PM,39.9,36.0,86,30.00,4.0,East,6.9,-,0.09,Rain,Light Rain,80,2013-04-12 17:52:00
1:59 PM,39.9,36.0,86,29.99,2.5,East,11.5,-,0.01,Rain,Rain,80,2013-04-12 17:59:00
2:29 PM,39.9,36.0,86,29.97,1.5,East,9.2,-,0.03,Rain,Light Rain,90,2013-04-12 18:29:00
2:38 PM,39.9,35.1,83,29.97,3.0,ESE,13.8,24.2,0.04,Rain,Light Rain,110,2013-04-12 18:38:00
2:42 PM,39.9,35.1,83,29.97,3.0,ESE,11.5,21.9,0.04,Rain,Light Rain,110,2013-04-12 18:42:00
2:47 PM,39.2,35.6,87,29.96,3.0,East,8.1,17.3,0.05,Rain,Rain,90,2013-04-12 18:47:00
2:52 PM,39.9,35.1,83,29.96,2.5,East,11.5,18.4,0.06,Rain,Rain,90,2013-04-12 18:52:00
2:58 PM,39.0,34.0,82,29.95,3.0,East,8.1,18.4,0.01,Rain,Rain,80,2013-04-12 18:58:00
3:10 PM,39.9,35.1,83,29.94,4.0,ENE,9.2,-,0.02,Rain,Light Rain,70,2013-04-12 19:10:00
3:40 PM,39.0,35.1,86,29.90,5.0,East,9.2,18.4,0.06,Rain,Rain,90,2013-04-12 19:40:00
3:52 PM,39.0,35.1,86,29.88,6.0,East,12.7,18.4,0.07,Rain,Light Rain,80,2013-04-12 19:52:00
4:45 PM,39.9,36.0,86,29.87,2.5,ENE,8.1,-,0.02,Rain,Rain,60,2013-04-12 20:45:00
4:52 PM,39.9,36.0,86,29.87,2.0,East,5.8,-,0.03,Rain,Rain,80,2013-04-12 20:52:00
5:45 PM,41.0,37.0,86,29.84,4.0,Variable,6.9,-,0.02,Rain,Light Rain,0,2013-04-12 21:45:00
5:52 PM,41.0,36.0,82,29.84,4.0,NE,5.8,-,0.03,Rain,Light Rain,50,2013-04-12 21:52:00
6:17 PM,41.0,36.0,82,29.83,2.0,ENE,8.1,16.1,0.03,Rain,Rain,60,2013-04-12 22:17:00
6:36 PM,39.9,36.0,86,29.81,3.0,NE,8.1,20.7,0.08,Rain,Rain,50,2013-04-12 22:36:00
6:52 PM,39.9,36.0,86,29.81,4.0,NE,9.2,-,0.09,Rain,Light Rain,50,2013-04-12 22:52:00
7:06 PM,39.9,36.0,86,29.80,1.8,NE,6.9,-,0.04,Rain,Heavy Rain,50,2013-04-12 23:06:00
7:16 PM,39.9,36.0,86,29.79,3.0,NNE,8.1,-,0.05,Rain,Light Rain,30,2013-04-12 23:16:00
7:52 PM,41.0,36.0,82,29.79,7.0,NNE,8.1,-,0.07,Rain,Light Rain,20,2013-04-12 23:52:00
8:52 PM,41.0,37.0,86,29.77,5.0,NNE,8.1,-,0.00,,Overcast,20,2013-04-13 00:52:00
9:32 PM,41.0,37.9,89,29.77,2.5,NNE,12.7,18.4,N/A,,Overcast,20,2013-04-13 01:32:00
9:39 PM,41.0,37.9,89,29.77,2.5,NNE,11.5,17.3,N/A,,Overcast,20,2013-04-13 01:39:00
9:52 PM,41.0,37.0,86,29.77,3.0,NNE,9.2,18.4,N/A,,Overcast,30,2013-04-13 01:52:00
10:10 PM,41.0,37.9,89,29.77,4.0,Variable,6.9,16.1,N/A,,Overcast,0,2013-04-13 02:10:00
10:52 PM,41.0,37.0,86,29.75,8.0,North,10.4,23.0,0.00,Rain,Light Rain,10,2013-04-13 02:52:00
11:52 PM,41.0,37.0,86,29.74,10.0,North,9.2,16.1,0.01,,Overcast,10,2013-04-13 03:52:00